Regional Weather Roundup
Issued by NWS

Home | Current Version | Previous Version | Graphics & Text | Print | Product List | Glossary Off
Versions: 1 2 3 4 5 6 7 8 9 10 11 12 13 14 15 16 17 18 19 20 21 22 23 24 25 26 27 28 29 30 31 32 33 34 35 36 37 38 39 40 41 42 43 44 45 46 47 48 49 50

000
ASUS43 KTOP 011259
RWRKS

WEATHER ROUNDUP FOR KANSAS
NATIONAL WEATHER SERVICE GOODLAND KS
700 AM CST SUN FEB 01 2015

NOTE:  "FAIR" INDICATES FEW OR NO CLOUDS BELOW 12,000 FEET WITH NO
SIGNIFICANT WEATHER AND/OR OBSTRUCTIONS TO VISIBILITY.

KSZ001>006-013>018-027>032-041>047-011400-
NORTHWEST KANSAS

CITY           SKY/WX    TMP DP  RH WIND       PRES   REMARKS
GOODLAND       MOCLDY    19  15  84 N23G33    30.08R WCI   2
HAYS           MOCLDY    19   7  58 N26G41    30.03R WCI   1
HILL CITY      CLOUDY    18  12  77 N25G37    30.07R WCI   0
RUSSELL        CLOUDY    21  16  81 NW35G41   29.99R WCI   2
$$

KSZ061>065-074>080-084>089-011400-
SOUTHWEST KANSAS

CITY           SKY/WX    TMP DP  RH WIND       PRES   REMARKS
DODGE CITY     CLOUDY    22  15  75 NW26G38   30.00R WCI   5
ELKHART          N/A     29  18  64 N16         N/A  WCI  17
GARDEN CITY    PTCLDY    21  16  81 N25G36    30.04R WCI   4
LIBERAL        PTCLDY    28  21  74 N26       30.05R WCI  13
$$

KSZ066>073-081>083-090>101-011400-
SOUTHEAST KANSAS

CITY           SKY/WX    TMP DP  RH WIND       PRES   REMARKS
CHANUTE        LGT RAIN  42  41  96 SW9       29.72S
COFFEYVILLE    LGT RAIN  44  43  96 SW10      29.74S
HUTCHINSON     CLOUDY    29  23  78 NW30G43   29.90R WCI  13
MEDICINE LODGE   N/A     29  23  78 NW22G43   29.94R WCI  15
NEWTON         CLOUDY    30  23  74 NW29G38   29.86R WCI  15
PARSONS        LGT RAIN  43  43 100 SW7       29.74S
WICHITA INTL   CLOUDY    32  27  81 NW30G37   29.87R WCI  18
WICHITA JABRA  CLOUDY    31  31 100 NW31G41   29.85R WCI  16
WINFIELD       CLOUDY    35  30  82 NW35G40   29.85R WCI  21
$$

KSZ007>012-019>026-033>040-048>060-102>105-011400-
NORTHEAST KANSAS

CITY           SKY/WX    TMP DP  RH WIND       PRES   REMARKS
CONCORDIA      LGT SNOW  20  17  88 N24G41    29.93R FOG     WCI   3
EMPORIA        LGT RAIN  35  34  96 NW18G26   29.76R WCI  24
LAWRENCE       LGT RAIN  33  32  96 NW6       29.73R FOG
MANHATTAN      LGT SNOW  33  31  92 N15G23    29.81R FOG     WCI  23
OLATHE IND     LGT RAIN  38  38 100 SW3       29.70S FOG
OLATHE EXE     LGT RAIN  37  36  96 CALM      29.69S FOG
SALINA         LGT SNOW  27  22  81 NW36G45   29.91R WCI  10
TOPEKA BILLARD LGT SNOW  33  32  96 NW7       29.75R FOG
TOPEKA FORBES  LGT SNOW  35  32  88 NW14      29.73R FOG     WCI  26
$$



USA.gov is the U.S. government's official web portal to all federal, state and local government web resources and services.